PBO Station Position Time Series. Reference Frame : NAM14
Format Version,1.1.0
4-character ID,PALG
Station name,Pala_GPS
Begin Date, 2015-06-17
End Date, 2019-10-07
Release Date, 2019-10-08
Reference position, 33.3890182221 North Latitude, -117.0317816207 East Longitude, 528.81375 meters elevation,
Date, North (mm), East (mm), Vertical (mm), North Std. Deviation (mm), East Std. Deviation (mm),              Vertical Std. Deviation (mm), Quality,
2015-06-17,0.00, 0.00, 0.00, 1.85, 1.60, 7.08, repro,
2015-06-18,-0.44, 1.65, -1.33, 1.89, 1.65, 7.36, repro,
2015-06-19,-0.10, 0.16, 6.89, 1.86, 1.61, 7.21, repro,
2015-06-20,0.15, 1.14, 6.50, 1.83, 1.56, 7.02, repro,
2015-06-21,-0.34, 0.54, 8.72, 1.82, 1.56, 7.00, repro,
2015-06-22,-1.59, 0.18, 7.42, 1.83, 1.55, 6.99, repro,
2015-06-23,-0.28, 0.34, 7.44, 1.94, 1.60, 7.32, repro,
2015-06-24,-1.08, 0.27, 5.57, 1.89, 1.57, 7.15, repro,
2015-06-25,-1.74, -0.32, 4.48, 1.88, 1.60, 7.16, repro,
2015-06-26,-1.53, -1.39, 8.22, 1.91, 1.61, 7.31, repro,
2015-06-27,-1.81, -0.72, 1.45, 1.83, 1.56, 6.98, repro,
2015-06-28,-2.76, -0.82, 9.30, 1.82, 1.56, 6.95, repro,
2015-06-29,-0.39, -1.93, 6.62, 1.86, 1.60, 7.08, repro,
2015-06-30,-4.96, 1.55, 9.64, 2.12, 1.70, 8.12, repro,
2015-07-01,-3.02, -1.21, 12.60, 1.91, 1.59, 7.31, repro,
2015-07-02,-1.32, -0.21, 5.23, 1.89, 1.58, 7.25, repro,
2015-07-03,-2.17, -0.16, 8.28, 1.87, 1.56, 7.12, repro,
2015-07-04,-2.84, -1.17, 5.24, 1.84, 1.56, 7.02, repro,
2015-07-05,-2.48, 1.32, 2.97, 1.84, 1.56, 7.06, repro,
2015-07-06,-3.02, -0.48, 10.21, 1.85, 1.57, 7.07, repro,
2015-07-07,-2.53, -0.84, 12.29, 1.84, 1.56, 6.99, repro,
2015-07-08,-1.86, -1.36, 4.76, 1.83, 1.55, 6.94, repro,
2015-07-09,-1.21, -0.04, 13.38, 1.85, 1.56, 7.02, repro,
2015-07-10,-1.90, 0.42, 12.33, 1.87, 1.61, 7.15, repro,
2015-07-11,-2.65, -0.18, 7.85, 1.88, 1.62, 7.17, repro,
2015-07-12,-1.62, -0.15, 3.49, 1.84, 1.57, 7.06, repro,
2015-07-13,-2.01, 0.23, 2.06, 1.84, 1.55, 6.97, repro,
2015-07-14,-1.74, 0.16, 3.58, 1.83, 1.55, 6.94, repro,
2015-07-15,-2.02, 0.52, 8.03, 1.83, 1.56, 7.01, repro,
2015-07-16,-2.69, 0.69, 8.99, 1.89, 1.66, 7.26, repro,
2015-07-17,-2.40, 0.92, 3.40, 1.84, 1.57, 7.03, repro,
2015-07-18,-1.39, 1.35, -2.95, 1.83, 1.56, 6.98, repro,
2015-07-19,-0.82, 3.46, 10.94, 1.93, 1.66, 7.23, repro,
2015-07-20,-2.16, 0.20, 5.12, 1.84, 1.57, 7.02, repro,
2015-07-21,-2.04, 0.13, 12.43, 1.83, 1.56, 6.96, repro,
2015-07-22,-4.12, 0.07, 12.54, 1.87, 1.59, 7.11, repro,
2015-07-23,-1.32, 0.89, 14.89, 1.84, 1.56, 7.04, repro,
2015-07-24,-2.15, 0.68, 1.27, 1.83, 1.56, 6.99, repro,
2015-07-25,-1.46, 0.41, 10.59, 1.86, 1.58, 7.04, repro,
2015-07-26,-3.29, 0.66, 12.05, 1.83, 1.56, 6.95, repro,
2015-07-27,-0.63, 1.11, 2.66, 1.83, 1.56, 6.97, repro,
2015-07-28,-1.48, -0.19, 10.02, 1.91, 1.59, 7.31, repro,
2015-07-29,-2.52, -0.67, 12.65, 1.91, 1.59, 7.30, repro,
2015-07-30,-2.92, 1.92, 18.31, 1.87, 1.61, 7.28, repro,
2015-07-31,-3.24, -0.13, 9.43, 1.83, 1.55, 6.95, repro,
2015-08-01,-2.85, 0.71, 9.77, 1.83, 1.56, 6.98, repro,
2015-08-02,-1.20, 0.10, 0.64, 1.85, 1.57, 7.07, repro,
2015-08-03,-0.87, 0.47, 9.00, 1.85, 1.59, 7.14, repro,
2015-08-04,-2.67, -0.49, 12.01, 1.88, 1.63, 7.34, repro,
2015-08-05,-2.62, 0.53, 11.63, 1.85, 1.60, 7.12, repro,
2015-08-06,-2.05, 0.23, 11.16, 2.07, 1.69, 7.62, repro,
2015-08-07,-2.56, 1.81, 11.86, 1.88, 1.66, 7.29, repro,
2015-08-08,-0.53, 0.10, 19.97, 1.90, 1.63, 7.29, repro,
2015-08-09,-1.50, 0.14, 10.61, 1.95, 1.68, 7.49, repro,
2015-08-10,-2.25, 0.22, 9.38, 1.84, 1.60, 7.11, repro,
2015-08-11,-1.78, -0.92, 12.75, 1.85, 1.61, 7.19, repro,
2015-08-12,-2.72, -0.98, 9.07, 1.98, 1.68, 7.54, repro,
2015-08-13,-1.83, 0.82, 14.72, 1.86, 1.61, 7.20, repro,
2015-08-14,-0.25, 0.42, 8.12, 1.86, 1.62, 7.23, repro,
2015-08-15,-1.71, -0.19, 12.04, 1.85, 1.59, 7.13, repro,
2015-08-16,-1.93, 0.04, 20.25, 1.82, 1.58, 7.06, repro,
2015-08-17,-1.41, -0.57, 15.46, 1.83, 1.58, 7.06, repro,
2015-08-18,-2.26, -0.99, 12.59, 1.83, 1.57, 7.05, repro,
2015-08-19,-1.29, -0.37, 16.63, 1.83, 1.58, 7.08, repro,
2015-08-20,-1.03, 0.16, 9.00, 1.83, 1.57, 7.08, repro,
2015-08-21,-2.37, 0.04, 12.98, 1.84, 1.58, 7.12, repro,
2015-08-22,-1.68, -0.57, 6.30, 1.83, 1.59, 7.13, repro,
2015-08-23,-1.14, -0.74, 12.04, 1.87, 1.59, 7.16, repro,
2015-08-24,-2.09, 0.15, 5.75, 1.84, 1.58, 7.08, repro,
2015-08-25,-1.21, -0.06, 13.55, 1.86, 1.62, 7.27, repro,
2015-08-26,-2.57, 0.97, 10.06, 1.84, 1.58, 7.10, repro,
2015-08-27,-1.44, 1.15, 11.87, 1.82, 1.58, 7.05, repro,
2015-08-28,-2.16, -0.26, 10.75, 1.82, 1.57, 7.03, repro,
2015-08-29,-1.67, 1.66, 15.70, 1.83, 1.57, 7.05, repro,
2015-08-30,-3.18, -1.71, 21.42, 1.82, 1.58, 7.06, repro,
2015-08-31,0.46, 0.23, 12.20, 1.84, 1.58, 7.10, repro,
2015-09-01,-2.97, 0.95, 12.11, 1.88, 1.61, 7.22, repro,
2015-09-02,-2.31, -1.47, 16.47, 1.88, 1.61, 7.25, repro,
2015-09-03,-1.39, -1.11, 12.48, 1.85, 1.63, 7.20, repro,
2015-09-04,-1.70, 0.15, 12.67, 1.82, 1.58, 7.08, repro,
2015-09-05,-3.13, -0.92, 11.31, 1.85, 1.59, 7.18, repro,
2015-09-06,-2.02, 0.41, 8.99, 1.87, 1.60, 7.20, repro,
2015-09-07,-2.96, -0.16, 13.72, 1.83, 1.59, 7.13, repro,
2015-09-08,-1.64, 0.40, 12.70, 1.86, 1.64, 7.23, repro,
2015-09-09,-3.33, 1.11, 7.32, 2.23, 1.76, 8.14, repro,
2015-09-10,-2.18, -0.24, 12.72, 1.84, 1.59, 7.18, repro,
2015-09-11,-2.87, -1.84, 11.53, 1.90, 1.64, 7.33, repro,
2015-09-12,-2.33, 0.58, 10.77, 1.90, 1.63, 7.22, repro,
2015-09-13,-2.73, 1.95, 14.52, 1.84, 1.59, 7.13, repro,
2015-09-14,-2.54, -0.60, 10.66, 1.87, 1.64, 7.25, repro,
2015-09-15,-1.81, 0.80, 15.09, 1.96, 1.70, 7.66, repro,
2015-09-16,-1.41, -0.33, 14.35, 1.99, 1.72, 7.98, repro,
2015-09-17,-1.80, 0.11, 14.09, 1.85, 1.64, 7.27, repro,
2015-09-18,-1.41, 0.93, 5.41, 1.90, 1.65, 7.43, repro,
2015-09-19,-0.11, 0.88, 11.62, 1.87, 1.67, 7.41, repro,
2015-09-20,-1.72, -0.31, 7.35, 1.88, 1.67, 7.41, repro,
2015-09-21,-4.74, 0.29, 17.17, 1.91, 1.72, 7.68, repro,
2015-09-22,-3.30, 0.06, 18.89, 1.91, 1.70, 7.67, repro,
2015-09-23,-2.12, 1.34, -0.95, 1.88, 1.67, 7.43, repro,
2015-09-24,0.70, 2.56, 5.44, 1.92, 1.73, 7.63, repro,
2015-09-25,-0.99, 1.16, 0.61, 1.92, 1.74, 7.70, repro,
2015-09-26,-2.13, 0.37, 8.05, 1.96, 1.78, 7.78, repro,
2015-09-27,0.18, 1.51, 9.89, 1.92, 1.73, 7.63, repro,
2015-09-28,-0.57, 0.29, 9.25, 2.10, 1.83, 8.05, repro,
2015-09-29,-2.27, 0.95, 5.24, 2.05, 1.90, 8.11, repro,
2015-09-30,-0.94, 1.27, 13.26, 2.17, 1.99, 8.80, repro,
2015-10-01,-0.83, 1.39, 5.60, 2.09, 1.93, 8.43, repro,
2015-10-02,-1.96, 2.27, 4.30, 2.03, 1.84, 8.11, repro,
2015-10-03,-1.44, -0.10, 8.96, 2.51, 2.31, 10.06, repro,
2015-10-04,-2.51, 1.24, 21.64, 2.23, 1.91, 8.48, repro,
2015-10-05,-1.02, 1.20, 14.16, 2.02, 1.83, 8.04, repro,
2015-10-06,-0.95, 1.47, 7.38, 2.02, 1.82, 7.91, repro,
2015-10-07,-1.00, 1.56, -0.26, 2.01, 1.82, 7.85, repro,
2015-10-08,-0.74, 0.80, 3.17, 2.16, 1.91, 8.45, repro,
2015-10-09,2.22, 2.27, 8.76, 2.00, 1.78, 7.84, repro,
2015-10-10,0.66, 2.66, 11.74, 2.02, 1.80, 7.87, repro,
2015-10-11,-1.88, 1.46, 15.32, 1.98, 1.77, 7.78, repro,
2015-10-12,-2.52, 2.28, 9.75, 2.01, 1.82, 8.11, repro,
2015-10-13,-0.93, 1.78, 13.82, 2.33, 2.06, 9.18, repro,
2015-10-14,-1.34, 2.27, 15.65, 2.20, 2.03, 8.91, repro,
2015-10-15,-1.64, -1.16, 20.24, 2.21, 1.95, 8.71, repro,
2015-10-16,-1.82, 0.48, 2.72, 2.09, 1.87, 8.24, repro,
2015-10-17,-3.45, 1.75, 12.93, 2.06, 1.85, 8.20, repro,
2015-10-18,-2.75, 1.25, 16.17, 2.15, 1.96, 8.57, repro,
2015-10-19,-2.46, -0.86, 11.35, 2.04, 1.81, 7.98, repro,
2015-10-20,-3.45, 0.82, 15.51, 2.39, 2.20, 9.59, repro,
2015-10-21,-2.59, 0.42, 6.71, 2.21, 2.03, 8.94, repro,
2015-10-22,-0.81, 0.94, 8.94, 2.19, 2.05, 8.84, repro,
2015-10-23,-1.82, 2.91, 15.31, 2.26, 2.11, 9.21, repro,
2015-10-24,-2.48, 1.73, 5.42, 2.17, 2.10, 9.11, repro,
2015-10-25,-2.41, 1.50, 13.73, 2.18, 1.98, 8.61, repro,
2015-10-26,-2.64, -0.35, 9.58, 2.23, 2.02, 9.11, repro,
2015-10-27,-1.25, 1.59, 19.57, 2.18, 2.00, 8.73, repro,
2015-10-28,-1.56, 1.81, 16.64, 2.19, 2.00, 8.71, repro,
2015-10-29,-0.73, 2.87, 25.04, 2.13, 2.00, 8.65, repro,
2015-10-30,-0.83, -0.12, 10.46, 2.16, 1.98, 8.73, repro,
2015-10-31,-1.92, 0.99, 12.24, 2.14, 2.01, 8.72, repro,
2015-11-01,-1.42, 1.74, 11.69, 2.19, 2.08, 8.98, repro,
2015-11-02,-1.04, 1.37, 12.67, 2.26, 2.10, 9.11, repro,
2015-11-03,-3.25, -0.86, 15.54, 2.38, 2.29, 10.02, repro,
2015-11-04,-2.93, -0.08, 12.96, 2.96, 3.16, 12.60, repro,
2015-11-05,-1.44, 0.87, 17.54, 2.36, 2.36, 9.83, repro,
2015-11-06,0.15, -0.53, 9.38, 2.41, 2.29, 9.72, repro,
2015-11-07,-1.04, 0.25, 9.67, 2.43, 2.24, 9.88, repro,
2015-11-08,-0.03, -0.12, 11.50, 2.44, 2.24, 9.89, repro,
2015-11-09,-1.04, -1.11, 12.50, 2.63, 2.50, 10.64, repro,
2015-11-10,-2.89, -0.83, 16.89, 2.41, 2.32, 9.60, repro,
2015-11-11,-2.18, 1.10, 8.69, 2.37, 2.30, 9.83, repro,
2015-11-12,-0.91, 1.05, 6.80, 2.48, 2.29, 9.94, repro,
2015-11-13,-0.86, 0.44, 18.94, 2.61, 2.45, 10.32, repro,
2015-11-14,-1.01, 0.24, 9.95, 2.60, 2.46, 10.16, repro,
2015-11-15,-1.87, 0.63, 19.39, 2.52, 2.72, 10.96, repro,
2015-11-16,-3.13, -0.41, 18.15, 2.46, 2.46, 10.40, repro,
2015-11-17,-1.65, 1.17, 7.16, 2.37, 2.34, 10.36, repro,
2015-11-18,-1.72, -0.30, 15.71, 2.64, 2.45, 10.46, repro,
2015-11-19,-1.30, -0.31, 16.37, 1.83, 1.63, 7.23, repro,
2015-11-20,-0.76, 0.48, 12.55, 1.83, 1.62, 7.15, repro,
2015-11-21,-1.00, 1.24, 8.96, 1.81, 1.61, 7.10, repro,
2015-11-22,-1.07, 1.00, 11.76, 1.82, 1.61, 7.11, repro,
2015-11-23,-1.05, 0.37, 9.96, 1.83, 1.61, 7.17, repro,
2015-11-24,-0.44, 1.70, 12.55, 1.83, 1.62, 7.22, repro,
2015-11-25,-1.89, -1.59, 18.09, 1.85, 1.65, 7.34, repro,
2015-11-26,-0.32, -0.57, 9.07, 1.84, 1.66, 7.31, repro,
2015-11-27,-0.72, 0.49, 5.55, 1.80, 1.61, 7.09, repro,
2015-11-28,-0.43, 0.05, 2.44, 1.82, 1.62, 7.16, repro,
2015-11-29,-1.42, 0.87, 7.54, 1.83, 1.62, 7.19, repro,
2015-11-30,-0.65, 0.82, 7.15, 1.84, 1.63, 7.25, repro,
2015-12-01,-0.35, 1.07, 4.53, 1.82, 1.62, 7.16, repro,
2015-12-02,-0.79, 1.40, 3.65, 1.82, 1.62, 7.14, repro,
2015-12-03,-1.06, 0.86, 5.01, 1.84, 1.64, 7.37, repro,
2015-12-04,-1.00, -0.54, 5.56, 1.84, 1.64, 7.27, repro,
2015-12-05,-1.02, 1.09, 2.14, 1.82, 1.59, 7.19, repro,
2015-12-06,-1.76, 1.76, 5.06, 1.82, 1.60, 7.22, repro,
2015-12-07,-0.79, 0.87, 6.37, 1.84, 1.64, 7.34, repro,
2015-12-08,-1.58, 1.03, 9.61, 1.82, 1.65, 7.30, repro,
2015-12-09,-0.73, 0.25, 11.05, 1.84, 1.65, 7.34, repro,
2015-12-10,-2.06, 0.84, 13.05, 1.85, 1.68, 7.40, repro,
2015-12-11,-2.45, -2.80, 19.81, 1.85, 1.69, 7.42, repro,
2015-12-12,-1.53, 0.79, 7.29, 1.83, 1.65, 7.32, repro,
2015-12-13,-1.53, 0.43, 10.86, 1.82, 1.64, 7.28, repro,
2015-12-14,-3.67, -1.05, 13.86, 1.80, 1.59, 7.10, repro,
2015-12-15,-0.39, 1.16, 7.33, 1.82, 1.61, 7.14, repro,
2015-12-16,-1.16, 1.09, 12.11, 1.82, 1.60, 7.19, repro,
2015-12-17,-2.52, 2.02, 9.69, 1.88, 1.61, 7.40, repro,
2015-12-18,0.02, 1.28, 7.15, 1.86, 1.60, 7.34, repro,
2015-12-19,-0.86, 0.97, 6.20, 1.79, 1.58, 7.06, repro,
2015-12-20,-0.23, -0.97, 7.71, 1.82, 1.60, 7.16, repro,
2015-12-21,-0.56, 0.58, 3.40, 1.81, 1.57, 7.05, repro,
2015-12-22,-1.47, -0.33, 20.95, 1.82, 1.59, 7.12, repro,
2015-12-23,-2.46, -0.11, 23.81, 1.81, 1.58, 7.11, repro,
2015-12-24,0.93, 1.07, 15.63, 1.80, 1.59, 7.10, repro,
2015-12-25,-0.09, 2.86, 8.59, 1.80, 1.59, 7.07, repro,
2015-12-26,0.06, 2.11, 0.03, 1.80, 1.58, 7.06, repro,
2015-12-27,0.86, 2.56, 5.42, 1.81, 1.58, 7.07, repro,
2015-12-28,-0.13, 2.41, 2.41, 1.81, 1.58, 7.08, repro,
2015-12-29,0.26, 2.34, 5.55, 1.82, 1.59, 7.14, repro,
2015-12-30,0.44, 2.40, 3.71, 1.81, 1.59, 7.07, repro,
2015-12-31,1.54, 2.26, 5.89, 1.83, 1.60, 7.20, repro,
2016-01-01,0.40, 2.47, 8.22, 1.81, 1.58, 7.08, repro,
2016-01-02,0.65, 3.76, 9.82, 2.03, 1.69, 7.77, repro,
2016-01-03,0.58, 2.87, 6.83, 1.82, 1.59, 7.10, repro,
2016-01-04,0.06, 2.35, 8.24, 1.81, 1.58, 7.05, repro,
2016-01-05,1.89, 1.45, 9.90, 1.83, 1.59, 7.12, repro,
2016-01-06,-0.83, 0.58, 10.83, 1.85, 1.64, 7.24, repro,
2016-01-07,1.52, 3.69, 5.61, 1.83, 1.61, 7.16, repro,
2016-01-08,1.70, 4.82, -0.05, 1.86, 1.65, 7.30, repro,
2016-01-09,2.46, 5.41, -2.82, 1.84, 1.62, 7.17, repro,
2016-01-10,2.44, 5.86, 1.83, 1.83, 1.60, 7.18, repro,
2016-01-11,1.75, 5.02, -3.32, 1.82, 1.60, 7.14, repro,
2016-01-12,1.07, 3.97, 1.11, 1.81, 1.60, 7.13, repro,
2016-01-13,1.92, 4.83, 9.53, 1.81, 1.58, 7.04, repro,
2016-01-14,2.57, 4.79, -0.62, 1.80, 1.58, 7.04, repro,
2016-01-15,2.05, 3.70, 1.61, 1.85, 1.62, 7.13, repro,
2016-01-16,1.62, 3.20, 6.30, 1.82, 1.61, 7.11, repro,
2016-01-17,2.18, 3.53, 1.96, 1.81, 1.60, 7.11, repro,
2016-01-18,2.17, 4.72, 6.94, 1.81, 1.58, 7.05, repro,
2016-01-19,2.65, 5.31, 0.60, 1.81, 1.58, 7.02, repro,
2016-01-20,3.45, 4.46, 1.63, 1.81, 1.58, 7.06, repro,
2016-01-21,1.92, 4.60, -1.39, 1.83, 1.59, 7.13, repro,
2016-01-22,1.93, 3.98, 0.60, 1.82, 1.59, 7.07, repro,
2016-01-23,1.99, 3.41, 5.17, 1.82, 1.58, 7.05, repro,
2016-01-24,1.41, 3.38, 2.99, 1.92, 1.63, 7.38, repro,
2016-01-25,2.53, 3.08, 4.76, 1.84, 1.59, 7.18, repro,
2016-01-26,3.31, 4.16, 3.33, 1.86, 1.62, 7.29, repro,
2016-01-27,2.30, 3.79, -0.09, 1.85, 1.60, 7.21, repro,
2016-01-28,2.51, 2.73, 1.96, 1.84, 1.60, 7.22, repro,
2016-01-29,1.88, 4.26, 6.09, 1.89, 1.61, 7.39, repro,
2016-01-30,3.28, 2.97, 15.78, 1.86, 1.64, 7.28, repro,
2016-01-31,1.27, 2.58, 19.55, 1.94, 1.64, 7.53, repro,
2016-02-01,2.71, 3.84, 11.74, 1.87, 1.61, 7.24, repro,
2016-02-02,1.97, 3.57, 2.09, 1.85, 1.61, 7.23, repro,
2016-02-03,2.36, 3.93, 2.51, 1.84, 1.61, 7.24, repro,
2016-02-04,2.16, 4.26, 3.46, 1.84, 1.60, 7.20, repro,
2016-02-05,3.75, 4.86, 1.02, 1.82, 1.61, 7.21, repro,
2016-02-06,2.40, 4.76, 2.27, 1.85, 1.61, 7.20, repro,
2016-02-07,2.40, 3.90, 3.65, 1.84, 1.60, 7.17, repro,
2016-02-08,3.20, 5.76, -2.56, 1.83, 1.60, 7.18, repro,
2016-02-09,3.62, 4.42, 2.17, 1.83, 1.60, 7.15, repro,
2016-02-10,2.45, 4.70, -0.28, 1.83, 1.60, 7.17, repro,
2016-02-11,3.24, 5.20, 4.22, 1.85, 1.59, 7.17, repro,
2016-02-12,3.37, 4.60, 4.43, 1.84, 1.59, 7.12, repro,
2016-02-13,2.01, 3.93, 1.02, 1.85, 1.60, 7.23, repro,
2016-02-14,1.74, 3.67, 7.28, 1.83, 1.59, 7.15, repro,
2016-02-15,2.59, 4.66, 7.86, 1.82, 1.59, 7.09, repro,
2016-02-16,2.19, 3.05, 4.40, 1.84, 1.59, 7.14, repro,
2016-02-17,2.55, 3.60, 11.88, 1.85, 1.60, 7.18, repro,
2016-02-18,3.06, 5.90, 12.91, 1.86, 1.59, 7.17, repro,
2016-02-19,1.38, 3.74, 3.93, 1.84, 1.60, 7.14, repro,
2016-02-20,3.21, 5.07, 6.14, 1.83, 1.59, 7.10, repro,
2016-02-21,2.35, 5.06, 0.95, 1.84, 1.59, 7.17, repro,
2016-02-22,2.55, 5.12, -1.88, 1.85, 1.61, 7.15, repro,
2016-02-23,1.48, 3.57, 8.84, 1.84, 1.58, 7.10, repro,
2016-02-24,1.69, 4.03, 7.93, 1.85, 1.59, 7.16, repro,
2016-02-25,2.16, 4.97, 5.19, 1.83, 1.59, 7.10, repro,
2016-02-26,2.97, 4.96, 4.30, 1.89, 1.64, 7.41, repro,
2016-02-27,3.71, 4.61, 6.37, 1.85, 1.61, 7.18, repro,
2016-02-28,2.34, 4.46, 6.21, 1.87, 1.64, 7.28, repro,
2016-02-29,2.64, 5.06, 5.16, 1.86, 1.63, 7.23, repro,
2016-03-01,2.21, 5.15, 9.21, 1.83, 1.59, 7.09, repro,
2016-03-02,1.86, 5.08, 3.09, 1.84, 1.59, 7.11, repro,
2016-03-03,2.26, 4.45, 3.17, 1.86, 1.60, 7.16, repro,
2016-03-04,1.58, 4.94, 3.08, 1.87, 1.65, 7.27, repro,
2016-03-05,2.43, 5.73, 3.97, 1.83, 1.59, 7.05, repro,
2016-03-06,2.12, 4.50, 16.16, 1.84, 1.61, 7.13, repro,
2016-03-07,1.43, 4.90, 5.21, 1.87, 1.66, 7.28, repro,
2016-03-08,2.54, 4.52, 3.33, 1.92, 1.67, 7.37, repro,
2016-03-09,1.76, 4.49, 5.09, 1.85, 1.60, 7.14, repro,
2016-03-10,3.56, 5.79, 2.55, 1.81, 1.58, 6.88, repro,
2016-03-11,0.31, 5.88, 4.39, 1.80, 1.57, 6.87, repro,
2016-03-12,-0.14, 2.89, 5.22, 1.80, 1.57, 6.88, repro,
2016-03-13,1.85, 5.13, 3.09, 1.81, 1.59, 6.93, repro,
2016-03-14,0.86, 4.96, 10.49, 1.85, 1.64, 7.03, repro,
2016-03-15,2.48, 5.18, -1.06, 1.85, 1.64, 7.02, repro,
2016-03-16,0.46, 4.25, 7.55, 1.86, 1.68, 7.08, repro,
2016-03-17,2.78, 5.59, 10.44, 1.86, 1.64, 7.11, repro,
2016-03-18,2.04, 5.92, -0.37, 1.92, 1.69, 7.31, repro,
2016-03-19,2.23, 5.04, -0.04, 1.84, 1.60, 7.01, repro,
2016-03-20,1.55, 6.42, 0.60, 1.81, 1.57, 6.86, repro,
2016-03-21,2.72, 6.60, 1.13, 1.83, 1.59, 6.97, repro,
2016-03-22,0.49, 5.92, 8.84, 1.80, 1.57, 6.84, repro,
2016-03-23,0.37, 4.04, 8.40, 1.80, 1.57, 6.86, repro,
2016-03-24,1.60, 5.51, 5.07, 1.81, 1.58, 6.92, repro,
2016-03-25,1.48, 5.40, 10.92, 1.81, 1.59, 6.94, repro,
2016-03-26,0.45, 7.11, 3.79, 1.91, 1.79, 7.52, repro,
2016-03-27,1.76, 4.13, 8.11, 1.81, 1.59, 6.90, repro,
2016-03-28,1.01, 5.02, 14.05, 1.82, 1.59, 6.95, repro,
2016-03-29,-0.99, 3.08, 17.62, 1.85, 1.60, 7.13, repro,
2016-03-30,-0.67, 4.20, 12.33, 1.81, 1.59, 6.95, repro,
2016-03-31,1.25, 6.68, 1.97, 1.81, 1.60, 6.95, repro,
2016-04-01,0.83, 6.71, 8.25, 1.80, 1.59, 6.87, repro,
2016-04-02,1.33, 6.53, 5.08, 1.81, 1.59, 6.89, repro,
2016-04-03,0.21, 6.01, 5.96, 1.80, 1.58, 6.87, repro,
2016-04-04,1.88, 6.52, 5.86, 1.80, 1.59, 6.91, repro,
2016-04-05,1.36, 4.92, 6.32, 1.81, 1.60, 6.94, repro,
2016-04-06,1.64, 7.43, 4.89, 1.80, 1.60, 6.93, repro,
2016-04-07,0.92, 5.41, 7.54, 1.83, 1.64, 7.10, repro,
2016-04-08,-1.01, 4.06, 7.12, 1.82, 1.58, 6.89, repro,
2016-04-09,0.22, 5.36, 8.27, 1.80, 1.58, 6.88, repro,
2016-04-10,-1.11, 6.38, 10.88, 1.80, 1.59, 6.92, repro,
2016-04-11,-0.10, 5.98, 1.14, 1.80, 1.59, 6.94, repro,
2016-04-12,0.56, 5.24, 1.15, 1.81, 1.60, 6.95, repro,
2016-04-13,1.04, 5.79, 2.72, 1.82, 1.58, 6.90, repro,
2016-04-14,0.57, 4.61, 13.06, 1.80, 1.59, 6.88, repro,
2016-04-15,0.46, 6.00, 11.68, 1.80, 1.58, 6.88, repro,
2016-04-16,-0.76, 5.80, 8.17, 1.80, 1.59, 6.90, repro,
2016-04-17,1.52, 5.23, 7.08, 1.85, 1.64, 7.09, repro,
2016-04-18,0.85, 4.61, 8.26, 1.81, 1.60, 6.94, repro,
2016-04-19,1.16, 5.39, 8.47, 1.84, 1.59, 7.10, repro,
2016-04-20,0.39, 4.61, 9.16, 1.86, 1.59, 7.09, repro,
2016-04-21,-0.66, 5.34, 6.32, 1.79, 1.59, 6.89, repro,
2016-04-22,0.62, 4.28, 7.28, 1.81, 1.60, 7.04, repro,
2016-04-23,0.08, 4.14, 7.72, 1.81, 1.60, 6.97, repro,
2016-04-24,-0.14, 3.49, 10.52, 1.81, 1.59, 6.96, repro,
2016-04-25,-1.49, 1.05, 23.74, 1.81, 1.58, 6.92, repro,
2016-04-26,-0.55, 2.88, 8.08, 1.81, 1.59, 6.92, repro,
2016-04-27,-1.00, 3.29, 10.72, 1.81, 1.61, 7.01, repro,
2016-04-28,-2.04, 3.06, 19.20, 1.84, 1.64, 7.12, repro,
2016-04-29,0.10, 3.75, 3.49, 1.82, 1.60, 7.01, repro,
2016-04-30,-2.04, 4.65, 9.70, 1.80, 1.59, 6.94, repro,
2016-05-01,0.23, 4.03, 4.06, 1.81, 1.58, 6.89, repro,
2016-05-02,-0.34, 2.34, 8.13, 1.91, 1.67, 7.43, repro,
2016-05-03,-0.43, 4.64, 1.18, 1.82, 1.60, 7.02, repro,
2016-05-04,-0.38, 3.05, 2.04, 1.86, 1.62, 7.14, repro,
2016-05-05,0.06, 3.48, 0.49, 1.98, 1.72, 7.69, repro,
2016-05-06,-1.32, 2.99, 8.36, 1.89, 1.61, 7.23, repro,
2016-05-07,-1.44, 3.27, 10.72, 1.84, 1.64, 7.07, repro,
2016-05-08,-2.18, 2.69, 6.32, 1.84, 1.63, 7.06, repro,
2016-05-09,-1.53, 2.44, 8.61, 1.81, 1.60, 6.97, repro,
2016-05-10,-1.62, 4.24, 2.55, 1.81, 1.58, 6.92, repro,
2016-05-11,0.87, 4.01, -3.45, 1.84, 1.62, 7.00, repro,
2016-05-12,-1.31, 2.43, 6.62, 1.82, 1.62, 7.03, repro,
2016-05-13,-2.14, 3.41, 5.45, 1.81, 1.59, 6.91, repro,
2016-05-14,-2.45, 2.54, 1.07, 1.80, 1.58, 6.89, repro,
2016-05-15,-2.51, 3.04, 10.55, 1.82, 1.60, 7.01, repro,
2016-05-16,-2.18, 4.18, 11.16, 1.81, 1.59, 6.98, repro,
2016-05-17,-1.89, 4.19, 9.07, 1.80, 1.57, 6.88, repro,
2016-05-18,-0.29, 4.30, -0.05, 1.80, 1.59, 6.93, repro,
2016-05-19,-0.74, 3.83, 5.08, 1.84, 1.61, 7.09, repro,
2016-05-20,-0.12, 3.85, 8.29, 1.81, 1.59, 6.92, repro,
2016-05-21,-1.48, 2.71, 5.77, 1.80, 1.58, 6.91, repro,
2016-05-22,-0.95, 3.53, 2.60, 1.80, 1.57, 6.88, repro,
2016-05-23,-1.49, 3.44, 1.64, 1.80, 1.58, 6.89, repro,
2016-05-24,-2.19, 2.56, 2.30, 1.79, 1.57, 6.84, repro,
2016-05-25,-1.52, 3.59, 8.48, 1.80, 1.59, 6.92, repro,
2016-05-26,-1.88, 4.31, 1.96, 1.82, 1.58, 6.91, repro,
2016-05-27,-0.68, 4.14, -1.69, 1.89, 1.61, 7.17, repro,
2016-05-28,-1.56, 3.53, 6.83, 1.86, 1.60, 7.02, repro,
2016-05-29,-2.72, 2.64, 4.33, 1.80, 1.57, 6.85, repro,
2016-05-30,-1.25, 3.09, 3.85, 1.82, 1.58, 6.91, repro,
2016-05-31,-2.53, 2.31, 4.13, 1.81, 1.59, 6.91, repro,
2016-06-01,-1.86, 2.64, -0.15, 1.81, 1.59, 6.92, repro,
2016-06-02,-1.75, 4.34, -4.89, 1.81, 1.59, 6.94, repro,
2016-06-03,-1.70, 3.95, 7.37, 1.85, 1.67, 7.23, repro,
2016-06-04,-1.65, 3.10, -0.70, 1.81, 1.58, 6.90, repro,
2016-06-05,-2.29, 2.69, 7.84, 1.80, 1.58, 6.89, repro,
2016-06-06,-1.12, 2.64, -0.67, 1.81, 1.59, 7.06, repro,
2016-06-07,-1.37, 2.98, 4.78, 1.81, 1.58, 6.93, repro,
2016-06-08,-2.45, 3.18, 4.70, 1.81, 1.59, 6.92, repro,
2016-06-09,-2.42, 3.20, 7.99, 1.81, 1.58, 6.89, repro,
2016-06-10,-1.46, 3.34, 5.16, 1.80, 1.58, 6.88, repro,
2016-06-11,-1.99, 3.21, 5.32, 1.82, 1.59, 6.94, repro,
2016-06-12,-0.37, 2.64, -0.01, 1.81, 1.59, 6.93, repro,
2016-06-13,-2.37, 2.69, 2.28, 1.80, 1.59, 6.90, repro,
2016-06-14,-2.12, 2.89, 7.92, 1.81, 1.58, 6.89, repro,
2016-06-15,-1.80, 1.77, 7.66, 1.81, 1.59, 6.91, repro,
2016-06-16,-1.53, 2.61, 1.90, 1.81, 1.58, 6.90, repro,
2016-06-17,-1.46, 1.87, 2.85, 1.80, 1.59, 6.91, repro,
2016-06-18,-2.45, 1.94, 4.19, 1.82, 1.59, 6.99, repro,
2016-06-19,-1.06, 2.93, -0.63, 1.82, 1.59, 6.94, repro,
2016-06-20,-1.55, 2.89, 4.45, 1.81, 1.59, 6.93, repro,
2016-06-21,-0.34, 0.44, 7.12, 1.82, 1.59, 6.93, repro,
2016-06-22,-1.91, 2.48, 5.47, 1.82, 1.59, 6.95, repro,
2016-06-23,-1.61, 2.02, 3.84, 1.81, 1.58, 6.92, repro,
2016-06-24,-2.98, 1.61, 5.70, 1.84, 1.60, 6.94, repro,
2016-06-25,-1.65, 2.77, 3.84, 1.85, 1.63, 7.02, repro,
2016-06-26,-2.58, 2.54, 3.89, 2.30, 2.10, 9.00, repro,
2016-06-27,-3.30, 1.73, 1.64, 1.83, 1.59, 6.98, repro,
2016-06-28,-2.26, 1.98, 3.99, 1.83, 1.63, 7.08, repro,
2016-06-29,-2.48, 1.71, -2.99, 1.80, 1.57, 6.83, repro,
2016-06-30,-1.71, 2.17, 6.55, 1.81, 1.57, 6.84, repro,
2016-07-01,-2.56, 0.74, 1.94, 1.81, 1.57, 6.86, repro,
2016-07-02,-3.20, 2.95, 4.64, 1.81, 1.58, 6.91, repro,
2016-07-03,-1.80, 1.69, 1.38, 1.86, 1.59, 7.09, repro,
2016-07-04,-2.73, 2.20, 1.98, 1.87, 1.64, 7.18, repro,
2016-07-05,-2.78, 0.18, 8.68, 1.80, 1.58, 6.86, repro,
2016-07-06,-3.12, 1.74, 3.56, 1.83, 1.62, 6.97, repro,
2016-07-07,-1.08, 1.53, 5.62, 1.80, 1.58, 6.90, repro,
2016-07-08,-1.49, 1.88, 4.57, 1.94, 1.69, 7.42, repro,
2016-07-09,-3.30, 1.81, 1.34, 1.82, 1.60, 7.05, repro,
2016-07-10,-1.84, 2.33, 4.71, 1.79, 1.57, 6.87, repro,
2016-07-11,-3.14, 1.65, 6.41, 1.80, 1.57, 6.88, repro,
2016-07-12,-2.82, 2.41, 5.67, 1.80, 1.57, 6.88, repro,
2016-07-13,-2.69, 1.32, 0.47, 1.86, 1.63, 7.13, repro,
2016-07-14,-3.91, 1.33, 4.22, 1.82, 1.58, 6.92, repro,
2016-07-15,-1.95, 3.22, 5.48, 1.81, 1.58, 6.96, repro,
2016-07-16,-1.68, 1.90, 6.81, 1.80, 1.58, 6.89, repro,
2016-07-17,-2.67, 1.24, 2.70, 1.82, 1.57, 6.89, repro,
2016-07-18,-1.96, 1.98, 7.90, 1.81, 1.58, 6.90, repro,
2016-07-19,-2.64, 2.36, -0.85, 1.82, 1.58, 6.92, repro,
2016-07-20,-2.56, 1.76, 4.77, 1.86, 1.62, 7.09, repro,
2016-07-21,-2.11, 2.10, 11.54, 1.81, 1.58, 6.94, repro,
2016-07-22,-2.57, 2.63, 12.34, 1.85, 1.62, 7.01, repro,
2016-07-23,-2.34, 1.97, 6.10, 1.81, 1.58, 6.90, repro,
2016-07-24,-1.80, 1.27, 8.56, 1.87, 1.63, 7.07, repro,
2016-07-25,-1.10, 1.68, 9.57, 1.84, 1.59, 7.02, repro,
2016-07-26,-2.63, 2.30, 12.37, 1.84, 1.61, 6.97, repro,
2016-07-27,-2.61, 1.53, 11.90, 2.04, 1.75, 7.72, repro,
2016-07-28,-2.08, 2.18, 15.91, 1.81, 1.58, 6.91, repro,
2016-07-29,-2.43, 2.19, 11.11, 1.88, 1.60, 7.15, repro,
2016-07-30,-2.21, 0.93, 13.86, 1.83, 1.59, 7.01, repro,
2016-07-31,-3.06, 2.31, 12.36, 1.82, 1.57, 6.96, repro,
2016-08-01,-1.36, 2.15, 6.67, 1.80, 1.57, 6.90, repro,
2016-08-02,-2.12, 2.52, 3.87, 1.80, 1.57, 6.89, repro,
2016-08-03,-3.85, 1.65, 5.99, 1.80, 1.58, 6.95, repro,
2016-08-04,-3.75, 1.56, 4.96, 1.81, 1.58, 6.97, repro,
2016-08-06,-1.46, 0.91, 8.91, 1.84, 1.62, 7.06, repro,
2016-08-07,-2.93, 0.15, 8.69, 1.80, 1.57, 6.92, repro,
2016-08-08,-1.62, 1.39, 9.47, 1.81, 1.57, 6.92, repro,
2016-08-09,-1.47, 0.85, 3.27, 1.81, 1.58, 6.93, repro,
2016-08-10,-2.84, 1.64, 7.36, 1.81, 1.58, 6.97, repro,
2016-08-11,-3.20, 1.41, -0.37, 1.81, 1.58, 6.96, repro,
2016-08-12,-4.47, 1.25, 3.51, 1.81, 1.57, 6.92, repro,
2016-08-13,-2.21, 2.26, 3.57, 1.79, 1.56, 6.87, repro,
2016-08-14,-2.15, 2.40, 4.14, 1.82, 1.58, 6.99, repro,
2016-08-15,-1.60, 1.69, 12.05, 1.80, 1.57, 6.86, repro,
2016-08-16,-1.34, 0.68, 10.86, 1.84, 1.63, 7.10, repro,